Location: Waldport
(44.4270°N, 124.0680°W)
Time: 15:52:46
(UTC-07:00)

Meteor 1-26 Rocket - Visible Passes

Search period start: 19 April 2014 00:00
Search period end: 29 April 2014 00:00
Orbit: 826 x 910 km, 81.3° (Epoch: 18 April)

Date Brightness Start Highest point End Pass type
(mag) Time Alt. Az. Time Alt. Az. Time Alt. Az.
19 Apr 4.7 21:51:39 10° SSW 21:57:28 66° WNW 22:03:12 10° N visible
19 Apr 7.3 23:41:16 10° WNW 23:41:55 10° WNW 23:42:35 10° NW visible
20 Apr 4.7 21:44:53 10° SSW 21:50:41 65° WNW 21:56:24 10° N visible
21 Apr 4.8 21:38:06 10° SSW 21:43:53 63° WNW 21:49:36 10° N visible
22 Apr 4.8 21:31:20 10° SSW 21:37:06 62° WNW 21:42:47 10° N visible
23 Apr 4.9 21:24:33 10° SSW 21:30:18 61° WNW 21:35:58 10° N visible
24 Apr 4.9 21:17:47 10° SSW 21:23:31 60° WNW 21:29:10 10° N visible
25 Apr 5.0 21:11:01 10° SSW 21:16:43 59° WNW 21:22:21 10° N visible
26 Apr 5.0 21:04:14 10° SSW 21:09:56 58° WNW 21:15:32 10° N visible
27 Apr 5.1 20:57:28 10° SSW 21:03:08 56° WNW 21:08:43 10° N visible
28 Apr 5.2 20:50:41 10° SSW 20:56:20 55° WNW 21:01:54 10° N visible
